This is the latest recevied weather packets stored in our database for station/object DG5MNJ. If no packets are shown the sender has not sent any weather packets the latest 10 day(s).
| Time | Temp. | Humidity | Pressure | Rain* | Wind** | Luminosity | Snow |
|---|---|---|---|---|---|---|---|
| 1777447502 | 10° C | 48% | 1018.8 hPa | 0 mm | - | 352 W/m² | - |
| 1777443904 | 8.89° C | 52% | 1018.5 hPa | 0 mm | - | 179 W/m² | - |
| 1777443303 | 8.89° C | 52% | 1018.5 hPa | 0 mm | - | 216 W/m² | - |
| 1777442703 | 8.89° C | 54% | 1018.4 hPa | 0 mm | - | 169 W/m² | - |
| 1777439702 | 8.89° C | 57% | 1017.9 hPa | 0 mm | - | 60 W/m² | - |
| 1777438802 | 8.89° C | 57% | 1017.5 hPa | 0 mm | - | 38 W/m² | - |
| 1777432502 | 10° C | 56% | 1016.5 hPa | 0 mm | - | 0 W/m² | - |
| 1777432203 | 10° C | 56% | 1016.7 hPa | 0 mm | - | 0 W/m² | - |
| 1777431302 | 10° C | 55% | 1016.8 hPa | 0 mm | - | 0 W/m² | - |
| 1777431022 | 10° C | 54% | 1016.5 hPa | 0 mm | - | 0 W/m² | - |
| 1777425902 | 10.56° C | 54% | 1016.3 hPa | 0 mm | - | 0 W/m² | - |
| 1777425302 | 10.56° C | 55% | 1016.2 hPa | 0 mm | - | 0 W/m² | - |
| 1777423222 | 11.11° C | 56% | 1016.4 hPa | 0 mm | - | 0 W/m² | - |
| 1777421102 | 11.67° C | 54% | 1016.3 hPa | 0 mm | - | 0 W/m² | - |
| 1777420202 | 11.67° C | 54% | 1016.3 hPa | 0 mm | - | 0 W/m² | - |
| 1777418702 | 12.22° C | 54% | 1016.3 hPa | 0 mm | - | 0 W/m² | - |
| 1777418422 | 12.22° C | 54% | 1016.1 hPa | 0 mm | - | 0 W/m² | - |
| 1777418102 | 12.22° C | 54% | 1016.3 hPa | 0 mm | - | 0 W/m² | - |
| 1777417802 | 12.78° C | 53% | 1016.3 hPa | 0 mm | - | 0 W/m² | - |
| 1777417504 | 12.78° C | 53% | 1016.3 hPa | 0 mm | - | 0 W/m² | - |
| 1777416321 | 12.78° C | 54% | 1016.3 hPa | 0 mm | - | 0 W/m² | - |
| 1777416004 | 12.78° C | 54% | 1016.3 hPa | 0 mm | - | 0 W/m² | - |
| 1777413903 | 12.78° C | 54% | 1016.1 hPa | 0 mm | - | 0 W/m² | - |
| 1777409102 | 14.44° C | 51% | 1015.8 hPa | 0 mm | - | 0 W/m² | - |
| 1777407902 | 14.44° C | 51% | 1015.7 hPa | 0 mm | - | 0 W/m² | - |
* Rain latest hour (hover to see other rain measurements)
** Current wind speed in m/s (hover to see current wind gust speed)